KM4USQ Weather Reports


time (UTC)temp
F
wind
direction
speed
knots
gust
knots
rain 1hr
in
rain 24hr
in
rain mn
in
humidity
%
barometer
mb
20260505025027 68 183 1.7 3.5 0.00 0.00 0.00 56 1013.2
20260505024030 69 141 2.6 3.5 0.00 0.00 0.00 55 1013.2
20260505023015 69 140 2.6 4.3 0.00 0.00 0.00 55 1013.1
20260505022018 69 239 1.7 3.5 0.00 0.00 0.00 54 1013.0
20260505021021 70 122 1.7 4.3 0.00 0.00 0.00 54 1013.0
20260505020025 70 121 2.6 4.3 0.00 0.00 0.00 53 1012.8
20260505015028 70 142 1.7 4.3 0.00 0.00 0.00 52 1012.6
20260505014031 71 118 1.7 2.6 0.00 0.00 0.00 51 1012.7
20260505013016 72 208 1.7 2.6 0.00 0.00 0.00 50 1012.7
20260505012019 72 166 2.6 3.5 0.00 0.00 0.00 49 1012.7
20260505011022 73 135 1.7 3.5 0.00 0.00 0.00 48 1012.7
20260505010025 74 182 2.6 4.3 0.00 0.00 0.00 47 1012.6
20260505005028 74 132 2.6 5.2 0.00 0.00 0.00 47 1012.5
20260505004032 75 148 2.6 4.3 0.00 0.00 0.00 45 1012.5
20260505003017 76 177 1.7 4.3 0.00 0.00 0.00 45 1012.5
20260505002040 76 98 3.5 5.2 0.00 0.00 0.00 43 1012.5
20260505001024 77 97 2.6 5.2 0.00 0.00 0.00 42 1012.5
20260505000021 78 140 3.5 6.1 0.00 0.00 0.00 41 1012.6
20260504235017 79 80 3.5 6.1 0.00 0.00 0.00 40 1012.7
20260504234015 80 204 4.3 7.0 0.00 0.00 0.00 39 1012.7
20260504233018 82 181 3.5 8.7 0.00 0.00 0.00 38 1012.7
20260504232041 83 233 4.3 7.8 0.00 0.00 0.00 37 1012.7
20260504231024 83 164 4.3 10.4 0.00 0.00 0.00 36 1012.7
20260504230028 84 194 5.2 11.3 0.00 0.00 0.00 36 1012.8
20260504225031 84 102 4.3 9.6 0.00 0.00 0.00 36 1012.6
20260504224016 82 135 4.3 7.0 0.00 0.00 0.00 37 1012.8
20260504223019 83 159 3.5 7.0 0.00 0.00 0.00 36 1012.8
20260504222022 85 142 4.3 8.7 0.00 0.00 0.00 35 1012.8
20260504221025 85 140 5.2 9.6 0.00 0.00 0.00 34 1012.7
20260504220028 86 114 4.3 7.8 0.00 0.00 0.00 34 1012.7
20260504215031 86 139 3.5 5.2 0.00 0.00 0.00 35 1012.8
20260504214017 86 166 4.3 8.7 0.00 0.00 0.00 34 1012.8
20260504213020 88 132 3.5 6.1 0.00 0.00 0.00 33 1012.9
20260504212023 87 117 4.3 7.0 0.00 0.00 0.00 33 1013.0
20260504211027 88 119 4.3 7.0 0.00 0.00 0.00 33 1013.1
20260504210029 88 116 5.2 9.6 0.00 0.00 0.00 32 1013.2
20260504205015 88 236 2.6 4.3 0.00 0.00 0.00 34 1013.1
20260504204018 88 126 3.5 5.2 0.00 0.00 0.00 33 1013.4
20260504203021 87 107 5.2 7.8 0.00 0.00 0.00 34 1013.6
20260504202018 88 109 5.2 7.8 0.00 0.00 0.00 34 1013.7
20260504201015 88 198 4.3 8.7 0.00 0.00 0.00 33 1013.8
20260504200030 88 127 3.5 7.0 0.00 0.00 0.00 34 1014.1
20260504195015 88 174 3.5 5.2 0.00 0.00 0.00 34 1014.2
20260504194019 87 98 5.2 9.6 0.00 0.00 0.00 35 1014.4
20260504193022 86 257 4.3 7.0 0.00 0.00 0.00 36 1014.6
20260504192025 87 285 5.2 9.6 0.00 0.00 0.00 35 1014.7
20260504191028 86 158 4.3 6.1 0.00 0.00 0.00 35 1014.8
20260504190031 86 167 4.3 7.0 0.00 0.00 0.00 34 1015.0
20260504185016 86 63 4.3 7.0 0.00 0.00 0.00 34 1015.2
20260504184020 87 63 5.2 10.4 0.00 0.00 0.00 34 1015.2
20260504183023 87 75 4.3 7.0 0.00 0.00 0.00 36 1015.3
20260504182026 86 281 3.5 7.8 0.00 0.00 0.00 36 1015.3
20260504181029 86 207 3.5 7.0 0.00 0.00 0.00 36 1015.3
20260504180032 85 114 5.2 7.8 0.00 0.00 0.00 36 1015.5
20260504175017 84 133 3.5 5.2 0.00 0.00 0.00 38 1015.9
20260504174020 84 258 5.2 7.0 0.00 0.00 0.00 39 1015.9
20260504173024 84 165 4.3 6.1 0.00 0.00 0.00 38 1016.0
20260504172026 84 130 4.3 7.8 0.00 0.00 0.00 40 1016.1
20260504171024 84 147 4.3 6.1 0.00 0.00 0.00 40 1016.2
20260504151112 75 290 3.5 5.2 0.00 0.00 0.00 53 1017.2
20260504141032 69 274 2.6 6.1 0.00 0.00 0.00 64 1017.4
20260504081020 61 105 2.6 4.3 0.00 0.00 0.00 68 1016.9
20260504050021 60 158 2.6 4.3 0.00 0.00 0.00 65 1018.3
20260504045023 60 146 1.7 2.6 0.00 0.00 0.00 65 1018.3
20260504044026 59 163 1.7 3.5 0.00 0.00 0.00 65 1018.3
20260504043030 59 142 0.9 2.6 0.00 0.00 0.00 66 1018.3
20260504042014 59 0.0 0.0 0.00 0.00 0.00 65 1018.2
20260504041018 59 0.0 0.0 0.00 0.00 0.00 64 1018.2
20260504040021 60 0.0 0.0 0.00 0.00 0.00 64 1018.4
20260504035024 60 0.0 0.0 0.00 0.00 0.00 63 1018.4
20260504034047 60 0.0 0.0 0.00 0.00 0.00 62 1018.4
20260504033031 61 0.0 0.0 0.00 0.00 0.00 61 1018.6
20260504032016 61 0.0 0.0 0.00 0.00 0.00 60 1018.7
20260504031019 61 0.0 0.0 0.00 0.00 0.00 59 1018.7
20260504030022 62 0.0 0.0 0.00 0.00 0.00 59 1018.7